CTN5NL EHAM-LDZA

Flight info

Callsign CTN5NL
Flight time 1h 28m
Altitude 39000
Route EDUPO Z739 MISGO DCT DOJOH DCT DODEN DCT NEGIX DCT DINKU DCT BESNI DCT LATLO DCT OBEDI DCT LULUD
Aircraft A320/M-SDE3FGHIRWY/LB1

Departure

Time 2026-04-28 15:35
Airport Amsterdam Airport Schiphol (EHAM)

Arrival

Time 2026-04-28 17:03
Airport Zagreb Franjo Tuđman International Airport (LDZA)
Time Latitude Longitude Altitude Speed Heading
2026-04-28 15:13 52.31024 4.75465 -2 ft 0 kts 148°
2026-04-28 15:16 52.31024 4.75464 -2 ft 0 kts 147°
2026-04-28 15:17 52.31025 4.75464 -2 ft 0 kts 147°
2026-04-28 15:25 52.31043 4.75446 -2 ft 4 kts 151°
2026-04-28 15:25 52.31061 4.75425 -2 ft 4 kts 98°
2026-04-28 15:26 52.31060 4.75397 -2 ft 2 kts 69°
2026-04-28 15:26 52.31059 4.75394 -2 ft 0 kts 69°
2026-04-28 15:29 52.31059 4.75395 -2 ft 1 kts 69°
2026-04-28 15:29 52.31074 4.75429 -2 ft 7 kts 51°
2026-04-28 15:30 52.31118 4.75491 -2 ft 9 kts 20°
2026-04-28 15:30 52.31190 4.75491 -2 ft 12 kts 356°
2026-04-28 15:30 52.31279 4.75481 -2 ft 14 kts 356°
2026-04-28 15:30 52.31379 4.75474 -2 ft 14 kts 358°
2026-04-28 15:31 52.31424 4.75363 -2 ft 14 kts 267°
2026-04-28 15:31 52.31419 4.75215 -2 ft 13 kts 267°
2026-04-28 15:31 52.31415 4.75078 -3 ft 12 kts 267°
2026-04-28 15:31 52.31411 4.74954 -2 ft 10 kts 267°
2026-04-28 15:32 52.31408 4.74842 -10 ft 9 kts 267°
2026-04-28 15:32 52.31406 4.74742 -2 ft 8 kts 272°
2026-04-28 15:32 52.31435 4.74677 -2 ft 7 kts 336°
2026-04-28 15:32 52.31481 4.74667 -2 ft 8 kts 356°
2026-04-28 15:33 52.31534 4.74663 -2 ft 8 kts 357°
2026-04-28 15:33 52.31591 4.74658 0 ft 8 kts 360°
2026-04-28 15:33 52.31645 4.74685 0 ft 9 kts 33°
2026-04-28 15:33 52.31669 4.74766 0 ft 0 kts 88°
2026-04-28 15:34 52.31669 4.74771 0 ft 2 kts 88°
2026-04-28 15:34 52.31675 4.74995 -6 ft 54 kts 86°
2026-04-28 15:34 52.31713 4.75988 -2 ft 118 kts 86°
2026-04-28 15:35 52.31770 4.77602 111 ft 157 kts 83°
2026-04-28 15:35 52.31874 4.81277 1595 ft 163 kts 85°
2026-04-28 15:35 52.31903 4.83142 2282 ft 170 kts 85°
2026-04-28 15:36 52.31906 4.85196 2671 ft 195 kts 90°
2026-04-28 15:36 52.31644 4.87536 3096 ft 225 kts 103°
2026-04-28 15:36 52.31102 4.90044 3829 ft 239 kts 107°
2026-04-28 15:36 52.30484 4.92603 4742 ft 245 kts 110°
2026-04-28 15:37 52.29824 4.95194 5672 ft 250 kts 111°
2026-04-28 15:37 52.29235 4.97881 6086 ft 252 kts 106°
2026-04-28 15:37 52.28736 5.00636 6222 ft 253 kts 105°
2026-04-28 15:37 52.28264 5.03404 6247 ft 253 kts 104°
2026-04-28 15:38 52.27799 5.06167 6251 ft 252 kts 104°
2026-04-28 15:38 52.27333 5.08917 6251 ft 251 kts 104°
2026-04-28 15:38 52.26860 5.11666 6248 ft 251 kts 104°
2026-04-28 15:38 52.26381 5.14426 6315 ft 257 kts 105°
2026-04-28 15:39 52.25889 5.17254 7232 ft 258 kts 105°
2026-04-28 15:39 52.25396 5.20072 8236 ft 259 kts 104°
2026-04-28 15:39 52.24900 5.22907 9179 ft 262 kts 104°
2026-04-28 15:39 52.24257 5.25729 10041 ft 269 kts 115°
2026-04-28 15:40 52.23267 5.28397 10646 ft 284 kts 123°
2026-04-28 15:40 52.22070 5.31140 10953 ft 307 kts 124°
2026-04-28 15:40 52.20766 5.33935 11510 ft 319 kts 125°
2026-04-28 15:40 52.19383 5.36792 12286 ft 323 kts 126°
2026-04-28 15:41 52.17980 5.39653 13126 ft 325 kts 126°
2026-04-28 15:41 52.16551 5.42573 13809 ft 332 kts 126°
2026-04-28 15:41 52.15107 5.45534 14480 ft 338 kts 126°
2026-04-28 15:41 52.13628 5.48580 15041 ft 346 kts 127°
2026-04-28 15:42 52.12132 5.51661 15696 ft 349 kts 126°
2026-04-28 15:42 52.10620 5.54774 16408 ft 352 kts 126°
2026-04-28 15:42 52.09092 5.57914 17076 ft 355 kts 126°
2026-04-28 15:42 52.07551 5.61079 17773 ft 358 kts 126°
2026-04-28 15:43 52.05996 5.64277 18461 ft 362 kts 126°
2026-04-28 15:43 52.04429 5.67503 19026 ft 365 kts 126°
2026-04-28 15:43 52.02840 5.70767 19595 ft 369 kts 126°
2026-04-28 15:43 52.01236 5.74053 20139 ft 373 kts 126°
2026-04-28 15:44 51.99611 5.77374 20776 ft 375 kts 126°
2026-04-28 15:44 51.97982 5.80701 21348 ft 379 kts 126°
2026-04-28 15:44 51.96339 5.84054 21984 ft 380 kts 125°
2026-04-28 15:44 51.94687 5.87420 22549 ft 384 kts 126°
2026-04-28 15:45 51.93030 5.90789 23027 ft 389 kts 126°
2026-04-28 15:45 51.91333 5.94236 23560 ft 393 kts 127°
2026-04-28 15:45 51.89620 5.97709 24049 ft 396 kts 127°
2026-04-28 15:45 51.87889 6.01219 24439 ft 402 kts 127°
2026-04-28 15:46 51.86136 6.04770 24831 ft 406 kts 127°
2026-04-28 15:46 51.84351 6.08311 25192 ft 409 kts 128°
2026-04-28 15:46 51.82490 6.11812 25615 ft 411 kts 130°
2026-04-28 15:46 51.80581 6.15283 26043 ft 414 kts 130°
2026-04-28 15:47 51.78651 6.18741 26446 ft 416 kts 131°
2026-04-28 15:47 51.77334 6.21092 26728 ft 418 kts 131°
2026-04-28 15:47 51.74750 6.25732 27264 ft 421 kts 130°
2026-04-28 15:47 51.72801 6.29261 27662 ft 423 kts 130°
2026-04-28 15:48 51.70839 6.32828 28034 ft 426 kts 130°
2026-04-28 15:48 51.68863 6.36425 28353 ft 430 kts 130°
2026-04-28 15:48 51.66871 6.40048 28706 ft 433 kts 130°
2026-04-28 15:48 51.64875 6.43676 29077 ft 435 kts 130°
2026-04-28 15:49 51.62862 6.47330 29428 ft 437 kts 130°
2026-04-28 15:49 51.60837 6.51007 29796 ft 439 kts 131°
2026-04-28 15:49 51.58778 6.54737 30151 ft 441 kts 131°
2026-04-28 15:49 51.56732 6.58436 30433 ft 444 kts 131°
2026-04-28 15:50 51.54670 6.62157 30689 ft 446 kts 131°
2026-04-28 15:50 51.52598 6.65885 30899 ft 449 kts 131°
2026-04-28 15:50 51.50509 6.69633 31131 ft 452 kts 131°
2026-04-28 15:50 51.48433 6.73353 31370 ft 454 kts 131°
2026-04-28 15:51 51.46313 6.77142 31554 ft 457 kts 131°
2026-04-28 15:51 51.44183 6.80944 31774 ft 460 kts 131°
2026-04-28 15:51 51.42045 6.84761 32082 ft 460 kts 131°
2026-04-28 15:51 51.39891 6.88566 32334 ft 461 kts 133°
2026-04-28 15:52 51.37662 6.92263 32630 ft 462 kts 135°
2026-04-28 15:52 51.35359 6.95873 32868 ft 465 kts 138°
2026-04-28 15:52 51.33014 6.99429 33127 ft 465 kts 138°
2026-04-28 15:52 51.30656 7.02961 33501 ft 464 kts 138°
2026-04-28 15:53 51.28304 7.06497 33847 ft 463 kts 138°
2026-04-28 15:53 51.25969 7.10045 34151 ft 464 kts 137°
2026-04-28 15:53 51.23649 7.13604 34459 ft 463 kts 137°
2026-04-28 15:53 51.21338 7.17173 34739 ft 463 kts 137°
2026-04-28 15:54 51.19016 7.20773 34950 ft 464 kts 137°
2026-04-28 15:54 51.16695 7.24364 35185 ft 465 kts 137°
2026-04-28 15:54 51.14370 7.27942 35432 ft 465 kts 137°
2026-04-28 15:54 51.12040 7.31511 35669 ft 465 kts 137°
2026-04-28 15:55 51.09705 7.35079 35911 ft 465 kts 138°
2026-04-28 15:55 51.07376 7.38630 36173 ft 464 kts 138°
2026-04-28 15:55 51.05050 7.42170 36435 ft 463 kts 138°
2026-04-28 15:55 51.02724 7.45705 36679 ft 463 kts 137°
2026-04-28 15:56 51.00402 7.49236 36911 ft 462 kts 137°
2026-04-28 15:56 50.98075 7.52769 37146 ft 462 kts 137°
2026-04-28 15:56 50.95757 7.56291 37365 ft 462 kts 137°
2026-04-28 15:56 50.93429 7.59823 37530 ft 463 kts 137°
2026-04-28 15:57 50.91100 7.63348 37705 ft 464 kts 137°
2026-04-28 15:57 50.88760 7.66876 37886 ft 464 kts 137°
2026-04-28 15:57 50.86419 7.70395 38074 ft 464 kts 137°
2026-04-28 15:57 50.84077 7.73910 38277 ft 464 kts 137°
2026-04-28 15:58 50.81737 7.77420 38493 ft 463 kts 137°
2026-04-28 15:58 50.80188 7.79740 38612 ft 464 kts 137°
2026-04-28 15:58 50.77839 7.83246 38792 ft 464 kts 137°
2026-04-28 15:58 50.75490 7.86743 38951 ft 464 kts 137°
2026-04-28 15:59 50.73145 7.90227 39117 ft 463 kts 137°
2026-04-28 15:59 50.70792 7.93712 39183 ft 464 kts 137°
2026-04-28 15:59 50.66073 8.00692 39192 ft 466 kts 137°
2026-04-28 16:00 50.61323 8.07692 39171 ft 468 kts 137°
2026-04-28 16:00 50.57096 8.15484 39165 ft 467 kts 129°
2026-04-28 16:01 50.53044 8.23476 39166 ft 466 kts 129°
2026-04-28 16:01 50.48990 8.31415 39165 ft 466 kts 129°
2026-04-28 16:02 50.44913 8.39367 39171 ft 467 kts 129°
2026-04-28 16:02 50.40839 8.47312 39173 ft 468 kts 129°
2026-04-28 16:03 50.36742 8.55168 39161 ft 468 kts 131°
2026-04-28 16:03 50.32322 8.62758 39148 ft 468 kts 135°
2026-04-28 16:04 50.27797 8.70078 39148 ft 468 kts 135°
2026-04-28 16:04 50.23298 8.77445 39150 ft 468 kts 134°
2026-04-28 16:05 50.18843 8.84869 39154 ft 469 kts 134°
2026-04-28 16:05 50.14383 8.92301 39153 ft 469 kts 134°
2026-04-28 16:06 50.09923 8.99688 39156 ft 468 kts 134°
2026-04-28 16:06 50.05467 9.07024 39149 ft 468 kts 135°
2026-04-28 16:07 50.00989 9.14381 39163 ft 468 kts 135°
2026-04-28 16:08 49.94257 9.25384 39152 ft 468 kts 135°
2026-04-28 16:08 49.89760 9.32720 39151 ft 469 kts 135°
2026-04-28 16:09 49.83018 9.43709 39149 ft 469 kts 135°
2026-04-28 16:10 49.76261 9.54644 39144 ft 469 kts 135°
2026-04-28 16:10 49.69471 9.65571 39132 ft 470 kts 135°
2026-04-28 16:11 49.60402 9.80132 39130 ft 471 kts 135°
2026-04-28 16:12 49.53587 9.91015 39110 ft 471 kts 135°
2026-04-28 16:13 49.46717 10.01924 39100 ft 473 kts 135°
2026-04-28 16:14 49.37528 10.16457 39109 ft 475 kts 135°
2026-04-28 16:15 49.28303 10.30974 39120 ft 475 kts 136°
2026-04-28 16:15 49.23676 10.38205 39126 ft 476 kts 136°
2026-04-28 16:16 49.16594 10.48847 39141 ft 476 kts 138°
2026-04-28 16:17 49.09417 10.59370 39152 ft 477 kts 138°
2026-04-28 16:17 49.04639 10.66421 39161 ft 478 kts 138°
2026-04-28 16:18 48.99861 10.73477 39135 ft 479 kts 138°
2026-04-28 16:18 48.95053 10.80551 39121 ft 481 kts 138°
2026-04-28 16:19 48.90235 10.87613 39109 ft 482 kts 139°
2026-04-28 16:19 48.85394 10.94681 39095 ft 482 kts 139°
2026-04-28 16:20 48.80540 11.01738 39091 ft 483 kts 139°
2026-04-28 16:20 48.75681 11.08790 39063 ft 484 kts 139°
2026-04-28 16:21 48.70843 11.15801 39074 ft 485 kts 139°
2026-04-28 16:21 48.65966 11.22842 39085 ft 485 kts 139°
2026-04-28 16:22 48.61173 11.30056 39098 ft 487 kts 135°
2026-04-28 16:22 48.56651 11.37693 39107 ft 488 kts 133°
2026-04-28 16:23 48.52177 11.45418 39106 ft 488 kts 134°
2026-04-28 16:23 48.47642 11.53013 39098 ft 487 kts 136°
2026-04-28 16:24 48.43062 11.60524 39107 ft 486 kts 136°
2026-04-28 16:24 48.38480 11.68004 39109 ft 485 kts 136°
2026-04-28 16:25 48.33905 11.75487 39109 ft 485 kts 136°
2026-04-28 16:25 48.29338 11.82964 39104 ft 486 kts 136°
2026-04-28 16:26 48.24765 11.90438 39103 ft 485 kts 136°
2026-04-28 16:26 48.20197 11.97873 39103 ft 485 kts 136°
2026-04-28 16:27 48.15613 12.05311 39112 ft 485 kts 136°
2026-04-28 16:28 48.08724 12.16437 39084 ft 486 kts 136°
2026-04-28 16:28 48.04112 12.23857 39081 ft 487 kts 136°
2026-04-28 16:29 47.97186 12.34967 39067 ft 487 kts 136°
2026-04-28 16:30 47.90239 12.46065 39086 ft 488 kts 136°
2026-04-28 16:30 47.85603 12.53444 39088 ft 488 kts 137°
2026-04-28 16:31 47.80956 12.60819 39094 ft 488 kts 137°
2026-04-28 16:31 47.76311 12.68173 39092 ft 488 kts 137°
2026-04-28 16:32 47.71650 12.75520 39080 ft 488 kts 137°
2026-04-28 16:32 47.64597 12.86451 39092 ft 489 kts 139°
2026-04-28 16:33 47.61363 12.91208 39094 ft 489 kts 139°
2026-04-28 16:33 47.54903 13.00585 39098 ft 489 kts 139°
2026-04-28 16:34 47.50071 13.07664 39103 ft 489 kts 139°
2026-04-28 16:34 47.45238 13.14782 39085 ft 490 kts 138°
2026-04-28 16:35 47.40402 13.21884 39090 ft 491 kts 139°
2026-04-28 16:35 47.35549 13.28964 39093 ft 490 kts 139°
2026-04-28 16:36 47.31522 13.34857 39096 ft 491 kts 137°
2026-04-28 16:36 47.26914 13.42295 39100 ft 492 kts 134°
2026-04-28 16:37 47.22435 13.49959 39102 ft 493 kts 133°
2026-04-28 16:38 47.15632 13.61319 39096 ft 493 kts 134°
2026-04-28 16:38 47.11031 13.68791 39104 ft 493 kts 134°
2026-04-28 16:39 47.06420 13.76264 39117 ft 494 kts 134°
2026-04-28 16:39 47.01816 13.83742 39112 ft 494 kts 134°
2026-04-28 16:40 46.97221 13.91209 39101 ft 494 kts 134°
2026-04-28 16:40 46.92618 13.98683 39080 ft 494 kts 134°
2026-04-28 16:41 46.88018 14.06125 39095 ft 492 kts 135°
2026-04-28 16:41 46.83445 14.13480 39096 ft 491 kts 135°
2026-04-28 16:41 46.81145 14.17168 38876 ft 490 kts 135°
2026-04-28 16:42 46.78849 14.20842 38634 ft 489 kts 135°
2026-04-28 16:42 46.76565 14.24491 38347 ft 489 kts 135°
2026-04-28 16:42 46.74263 14.28171 37673 ft 491 kts 135°
2026-04-28 16:42 46.71961 14.31850 36910 ft 492 kts 135°
2026-04-28 16:43 46.69648 14.35545 36047 ft 495 kts 135°
2026-04-28 16:43 46.67316 14.39259 35093 ft 500 kts 135°
2026-04-28 16:43 46.64956 14.43007 34337 ft 501 kts 135°
2026-04-28 16:43 46.62607 14.46735 33685 ft 498 kts 135°
2026-04-28 16:44 46.60273 14.50433 33043 ft 495 kts 135°
2026-04-28 16:44 46.57954 14.54102 32390 ft 491 kts 135°
2026-04-28 16:44 46.55649 14.57748 31755 ft 489 kts 135°
2026-04-28 16:44 46.53354 14.61377 31126 ft 486 kts 135°
2026-04-28 16:45 46.51076 14.64979 30502 ft 483 kts 135°
2026-04-28 16:45 46.48807 14.68560 29840 ft 481 kts 135°
2026-04-28 16:45 46.46551 14.72113 29235 ft 476 kts 135°
2026-04-28 16:45 46.44308 14.75636 28637 ft 471 kts 135°
2026-04-28 16:46 46.42095 14.79105 28040 ft 466 kts 135°
2026-04-28 16:46 46.39905 14.82538 27497 ft 460 kts 135°
2026-04-28 16:46 46.37749 14.85916 26960 ft 454 kts 135°
2026-04-28 16:46 46.35616 14.89254 26422 ft 450 kts 135°
2026-04-28 16:47 46.33502 14.92552 25901 ft 443 kts 136°
2026-04-28 16:47 46.31415 14.95806 25374 ft 439 kts 135°
2026-04-28 16:47 46.29344 14.99029 24848 ft 436 kts 136°
2026-04-28 16:47 46.27283 15.02232 24309 ft 433 kts 136°
2026-04-28 16:48 46.25240 15.05407 23772 ft 431 kts 136°
2026-04-28 16:48 46.23204 15.08568 23241 ft 427 kts 135°
2026-04-28 16:48 46.21193 15.11691 22686 ft 423 kts 135°
2026-04-28 16:48 46.19197 15.14787 22281 ft 417 kts 135°
2026-04-28 16:49 46.17226 15.17837 21777 ft 414 kts 135°
2026-04-28 16:49 46.15265 15.20860 21241 ft 411 kts 135°
2026-04-28 16:49 46.13325 15.23850 20786 ft 406 kts 135°
2026-04-28 16:49 46.11401 15.26818 20331 ft 402 kts 135°
2026-04-28 16:50 46.09523 15.29711 19872 ft 399 kts 135°
2026-04-28 16:50 46.07634 15.32614 19431 ft 395 kts 135°
2026-04-28 16:50 46.05766 15.35482 19005 ft 391 kts 134°
2026-04-28 16:50 46.03918 15.38318 18576 ft 387 kts 134°
2026-04-28 16:51 46.02081 15.41136 18119 ft 384 kts 134°
2026-04-28 16:51 46.00263 15.43925 17609 ft 380 kts 134°
2026-04-28 16:51 45.98463 15.46678 17133 ft 377 kts 134°
2026-04-28 16:51 45.96644 15.49456 16643 ft 374 kts 134°
2026-04-28 16:52 45.94867 15.52168 16174 ft 372 kts 134°
2026-04-28 16:52 45.93121 15.54829 15724 ft 369 kts 134°
2026-04-28 16:52 45.91366 15.57509 15272 ft 366 kts 134°
2026-04-28 16:52 45.89627 15.60159 14826 ft 364 kts 134°
2026-04-28 16:53 45.87898 15.62784 14406 ft 360 kts 135°
2026-04-28 16:53 45.86180 15.65385 13990 ft 357 kts 134°
2026-04-28 16:53 45.84478 15.67967 13508 ft 354 kts 135°
2026-04-28 16:53 45.82759 15.70475 13033 ft 351 kts 137°
2026-04-28 16:54 45.81002 15.72892 12602 ft 347 kts 138°
2026-04-28 16:54 45.79267 15.75209 12469 ft 334 kts 139°
2026-04-28 16:54 45.77543 15.77345 12334 ft 321 kts 149°
2026-04-28 16:54 45.76223 15.78186 12250 ft 309 kts 169°
2026-04-28 16:55 45.73544 15.77737 12083 ft 284 kts 212°
2026-04-28 16:55 45.72112 15.75925 11958 ft 270 kts 230°
2026-04-28 16:55 45.70859 15.73973 11799 ft 262 kts 229°
2026-04-28 16:55 45.69622 15.72078 11556 ft 259 kts 229°
2026-04-28 16:56 45.68391 15.70212 11255 ft 258 kts 229°
2026-04-28 16:56 45.67164 15.68359 10965 ft 256 kts 229°
2026-04-28 16:56 45.65938 15.66522 10656 ft 255 kts 226°
2026-04-28 16:56 45.64430 15.65227 10344 ft 257 kts 195°
2026-04-28 16:57 45.62655 15.65317 10015 ft 261 kts 161°
2026-04-28 16:57 45.61151 15.66761 9638 ft 263 kts 138°
2026-04-28 16:57 45.59815 15.68564 9223 ft 265 kts 138°
2026-04-28 16:57 45.58480 15.70383 8877 ft 264 kts 138°
2026-04-28 16:58 45.57151 15.72191 8517 ft 263 kts 138°
2026-04-28 16:58 45.55900 15.74091 8147 ft 264 kts 122°
2026-04-28 16:58 45.55392 15.76562 7832 ft 262 kts 88°
2026-04-28 16:58 45.55912 15.78992 7466 ft 258 kts 54°
2026-04-28 16:59 45.57089 15.80966 6859 ft 266 kts 45°
2026-04-28 16:59 45.58345 15.82858 6452 ft 259 kts 44°
2026-04-28 16:59 45.59587 15.84696 5888 ft 256 kts 44°
2026-04-28 16:59 45.60818 15.86510 5308 ft 253 kts 45°
2026-04-28 17:00 45.62037 15.88314 4734 ft 252 kts 47°
2026-04-28 17:00 45.63232 15.90115 4213 ft 247 kts 47°
2026-04-28 17:00 45.64397 15.91875 3730 ft 240 kts 48°
2026-04-28 17:00 45.65531 15.93591 3210 ft 235 kts 49°
2026-04-28 17:01 45.66641 15.95269 2692 ft 231 kts 48°
2026-04-28 17:01 45.67738 15.96931 2131 ft 227 kts 48°
2026-04-28 17:01 45.68783 15.98513 1688 ft 209 kts 48°
2026-04-28 17:01 45.69734 15.99952 1419 ft 190 kts 47°
2026-04-28 17:02 45.70609 16.01282 1106 ft 177 kts 47°
2026-04-28 17:02 45.71150 16.02101 1029 ft 162 kts 46°
2026-04-28 17:02 45.72101 16.03559 724 ft 142 kts 46°
2026-04-28 17:02 45.72739 16.04548 540 ft 132 kts 46°
2026-04-28 17:03 45.73931 16.06323 361 ft 97 kts 46°
2026-04-28 17:03 45.74275 16.06850 365 ft 47 kts 47°
2026-04-28 17:03 45.74479 16.07159 364 ft 39 kts 46°
2026-04-28 17:04 45.74653 16.07542 360 ft 13 kts 139°
2026-04-28 17:04 45.74593 16.07620 359 ft 10 kts 137°
2026-04-28 17:05 45.74502 16.07743 359 ft 8 kts 136°
2026-04-28 17:05 45.74465 16.07794 363 ft 7 kts 136°
2026-04-28 17:05 45.74432 16.07840 363 ft 6 kts 136°
2026-04-28 17:06 45.74374 16.07906 362 ft 4 kts 152°
2026-04-28 17:06 45.74350 16.07926 363 ft 4 kts 143°
2026-04-28 17:06 45.74302 16.07991 360 ft 3 kts 137°
2026-04-28 17:07 45.74293 16.08002 359 ft 0 kts 137°
2026-04-28 17:07 45.74293 16.08003 359 ft 0 kts 137°
2026-04-28 17:07 45.74292 16.08004 359 ft 0 kts 137°
2026-04-28 17:07 45.74290 16.08007 359 ft 0 kts 137°
2026-04-28 17:08 45.74288 16.08009 365 ft 0 kts 137°